This is the latest recevied weather packets stored in our database for station/object K7KAZ. If no packets are shown the sender has not sent any weather packets the latest 10 day(s).
| Time | Temp. | Humidity | Pressure | Rain* | Wind** | Luminosity | Snow |
|---|---|---|---|---|---|---|---|
| 1777541864 | 19.44° C | 28% | 1013 hPa | 0 mm | - | 0 W/m² | - |
| 1777541561 | 19.44° C | 28% | 1013 hPa | 0 mm | - | 0 W/m² | - |
| 1777541258 | 18.89° C | 29% | 1013.5 hPa | 0 mm | - | 0 W/m² | - |
| 1777540954 | 19.44° C | 27% | 1013.7 hPa | 0 mm | - | 0 W/m² | - |
| 1777540652 | 18.89° C | 27% | 1013.5 hPa | 0 mm | - | 0 W/m² | - |
| 1777540349 | 19.44° C | 28% | 1013.6 hPa | 0 mm | - | 0 W/m² | - |
| 1777540045 | 20° C | 26% | 1013.5 hPa | 0 mm | - | 0 W/m² | - |
| 1777539740 | 19.44° C | 27% | 1013.8 hPa | 0 mm | - | 0 W/m² | - |
| 1777539437 | 20° C | 26% | 1013.8 hPa | 0 mm | - | 0 W/m² | - |
| 1777539133 | 20° C | 27% | 1013.8 hPa | 0 mm | - | 0 W/m² | - |
| 1777538829 | 20° C | 26% | 1013.6 hPa | 0 mm | - | 0 W/m² | - |
| 1777538524 | 20° C | 27% | 1013.8 hPa | 0 mm | - | 0 W/m² | - |
| 1777538220 | 20° C | 27% | 1013.8 hPa | 0 mm | - | 0 W/m² | - |
| 1777537916 | 20° C | 27% | 1013.9 hPa | 0 mm | - | 0 W/m² | - |
| 1777537612 | 20° C | 27% | 1014 hPa | 0 mm | - | 0 W/m² | - |
| 1777537308 | 20° C | 29% | 1014.2 hPa | 0 mm | - | 0 W/m² | - |
| 1777537004 | 20.56° C | 26% | 1014.2 hPa | 0 mm | - | 0 W/m² | - |
| 1777536702 | 21.11° C | 24% | 1014.3 hPa | 0 mm | - | 0 W/m² | - |
| 1777536399 | 21.11° C | 25% | 1014.3 hPa | 0 mm | - | 0 W/m² | - |
| 1777536095 | 21.67° C | 25% | 1014.2 hPa | 0 mm | - | 0 W/m² | - |
| 1777535791 | 21.11° C | 24% | 1013.9 hPa | 0 mm | - | 0 W/m² | - |
| 1777535488 | 21.11° C | 24% | 1014.1 hPa | 0 mm | - | 0 W/m² | - |
| 1777535185 | 21.11° C | 25% | 1014.2 hPa | 0 mm | - | 0 W/m² | - |
| 1777534881 | 21.11° C | 25% | 1014.1 hPa | 0 mm | - | 0 W/m² | - |
| 1777534578 | 21.11° C | 25% | 1014.1 hPa | 0 mm | - | 0 W/m² | - |
* Rain latest hour (hover to see other rain measurements)
** Current wind speed in m/s (hover to see current wind gust speed)